TimeEST,TemperatureF,Dew PointF,Humidity,Sea Level PressureIn,VisibilityMPH,Wind Direction,Wind SpeedMPH,Gust SpeedMPH,PrecipitationIn,Events,Conditions,WindDirDegrees,DateUTC
12:58 AM,30.7,15.3,53,30.45,10.0,North,9.2,-,N/A,,Clear,350,2013-11-04 05:58:00
1:58 AM,29.8,15.3,55,30.48,10.0,North,9.2,-,N/A,,Clear,350,2013-11-04 06:58:00
2:58 AM,28.2,14.9,57,30.51,10.0,NNW,8.1,-,N/A,,Clear,330,2013-11-04 07:58:00
3:58 AM,25.5,14.9,64,30.54,10.0,NNW,9.2,-,N/A,,Clear,330,2013-11-04 08:58:00
4:58 AM,28.0,14.7,57,30.56,10.0,North,6.9,-,N/A,,Clear,360,2013-11-04 09:58:00
5:58 AM,27.7,14.5,58,30.59,10.0,North,8.1,-,N/A,,Clear,350,2013-11-04 10:58:00
6:58 AM,27.7,14.4,57,30.62,10.0,North,5.8,-,N/A,,Clear,360,2013-11-04 11:58:00
7:58 AM,32.9,14.0,46,30.64,10.0,North,6.9,-,N/A,,Partly Cloudy,360,2013-11-04 12:58:00
8:58 AM,36.0,14.0,41,30.63,10.0,NNE,12.7,-,N/A,,Partly Cloudy,20,2013-11-04 13:58:00
9:58 AM,37.8,12.4,35,30.65,10.0,NNE,8.1,-,N/A,,Partly Cloudy,30,2013-11-04 14:58:00
10:58 AM,39.6,12.4,33,30.65,10.0,NNE,6.9,-,N/A,,Partly Cloudy,20,2013-11-04 15:58:00
11:58 AM,40.3,13.1,33,30.65,10.0,Variable,4.6,-,N/A,,Partly Cloudy,0,2013-11-04 16:58:00
12:58 PM,41.5,12.0,30,30.63,10.0,NNW,5.8,-,N/A,,Partly Cloudy,330,2013-11-04 17:58:00
1:58 PM,42.3,11.7,29,30.63,10.0,NNE,5.8,-,N/A,,Clear,30,2013-11-04 18:58:00
2:58 PM,42.3,11.3,28,30.63,10.0,North,5.8,-,N/A,,Partly Cloudy,350,2013-11-04 19:58:00
3:58 PM,40.6,10.8,29,30.65,10.0,North,5.8,-,N/A,,Partly Cloudy,10,2013-11-04 20:58:00
4:58 PM,35.6,13.8,41,30.66,10.0,SSE,3.5,-,N/A,,Partly Cloudy,160,2013-11-04 21:58:00
5:58 PM,33.8,17.1,50,30.68,10.0,Calm,Calm,-,N/A,,Partly Cloudy,0,2013-11-04 22:58:00
6:58 PM,32.9,17.2,53,30.69,10.0,North,1.2,-,N/A,,Mostly Cloudy,360,2013-11-04 23:58:00
7:58 PM,27.7,18.3,68,30.70,10.0,Calm,Calm,-,N/A,,Mostly Cloudy,0,2013-11-05 00:58:00
8:58 PM,28.9,21.4,73,30.69,10.0,NW,2.3,-,N/A,,Partly Cloudy,310,2013-11-05 01:58:00
9:58 PM,27.3,21.7,80,30.70,10.0,WNW,1.2,-,N/A,,Clear,300,2013-11-05 02:58:00
10:58 PM,26.1,18.9,74,30.70,10.0,WNW,4.6,-,N/A,,Partly Cloudy,300,2013-11-05 03:58:00
11:58 PM,27.5,19.2,71,30.72,10.0,WNW,2.3,-,N/A,,Scattered Clouds,290,2013-11-05 04:58:00